Lid_Strength_Index
1 1 1 1 1 2 2 2 2 2 2 2 2 3 3 3 3 2 2 2 2 2 2 2 2 1 2 3 3 -0 -2 -1 -0 2 2 2 3 4 5 5 5 6 5 4 4 4 5
1 1 1 1 1 2 2 2 2 2 3 3 3 3 3 3 3 3 2 3 3 3 2 2 1 1 2 5 0 -1 -0 0 0 2 2 2 3 3 4 4 5 5 4 5 4 4 4
1 1 1 1 1 2 2 2 2 2 3 3 3 3 3 3 3 3 3 3 3 3 2 1 1 1 2 3 -0 -0 -0 0 0 1 2 1 2 3 3 5 3 4 6 5 5 4 5
1 2 2 1 2 2 2 2 2 3 3 3 3 3 3 3 3 3 3 3 3 2 1 0 -0 1 4 -0 -1 0 -0 1 0 0 1 1 1 3 3 3 4 6 6 8 5 5 4
2 1 1 2 2 2 2 2 2 3 3 3 3 3 3 3 3 3 3 4 3 1 -0 -0 1 2 4 0 2 0 0 2 1 1 1 1 2 3 4 6 7 6 9 9 7 5 5
1 1 1 2 2 2 2 2 2 3 3 3 3 3 3 3 3 4 4 4 1 1 -0 0 1 3 2 4 2 1 0 1 2 2 3 3 4 5 5 6 10 9 9 8 8 6 5
1 1 2 2 2 2 2 2 2 3 3 3 3 3 4 4 3 4 4 1 3 4 2 4 4 4 4 2 1 2 1 2 2 3 5 4 6 7 6 6 6 6 7 8 6 5 6
2 1 2 2 2 2 2 2 2 3 3 3 3 3 4 4 4 4 4 3 2 2 5 3 3 3 2 2 4 3 1 4 4 6 5 6 7 5 5 5 6 6 7 8 6 5 6
1 2 2 2 2 2 2 2 3 3 3 3 3 3 4 4 4 4 3 2 -0 0 5 4 3 4 3 3 4 4 2 3 5 6 6 7 6 5 6 6 7 7 7 7 8 6 6
1 2 2 2 2 2 3 3 3 3 4 4 4 4 4 4 7 3 3 1 -0 0 7 6 4 3 3 3 5 2 2 3 5 6 6 6 5 6 6 7 6 8 6 6 7 8 10
2 2 2 2 3 3 3 3 3 3 4 4 4 4 4 6 3 2 1 -1 -0 1 14 6 5 1 2 4 4 4 2 3 6 6 5 7 6 6 7 6 6 7 5 6 7 8 8
2 2 2 2 2 3 3 3 3 4 4 4 5 4 4 4 3 0 -1 -0 1 8 12 7 5 5 5 4 4 3 4 3 3 5 5 6 4 5 6 5 5 5 6 6 7 8 11
3 3 2 2 2 3 3 3 4 4 5 5 5 5 5 1 2 -1 -0 2 8 10 5 7 7 5 5 6 5 5 5 6 7 8 9 7 6 6 5 6 5 6 8 11 12 12 13
3 3 3 3 2 3 3 3 3 4 5 5 5 6 4 3 -0 -0 1 5 11 7 7 5 5 5 7 6 6 6 6 7 5 6 8 9 10 7 5 6 7 7 7 10 14 13 11
3 3 3 3 3 3 3 3 4 4 4 6 6 2 1 -0 -0 -0 4 9 9 7 6 6 6 7 7 6 6 6 6 7 6 6 8 9 9 5 5 5 5 7 8 6 9 9 11
3 4 3 3 3 3 3 3 4 4 5 5 2 1 2 -1 -1 1 6 10 7 5 5 5 8 6 8 7 7 7 7 5 6 5 5 6 9 6 5 5 5 6 6 9 9 13 14
4 4 4 4 4 3 3 3 4 4 5 7 3 4 1 -1 0 4 8 7 6 4 4 6 6 7 7 7 7 7 7 6 5 5 5 6 7 8 6 7 7 7 8 7 8 9 12
4 4 4 4 4 3 3 3 4 5 6 6 2 6 1 -0 5 5 6 5 8 5 4 5 5 6 6 6 7 7 7 7 5 5 7 5 7 10 8 6 5 6 7 7 11 11 10
4 4 4 4 4 3 3 4 4 5 5 3 4 4 1 1 7 7 5 5 5 5 5 5 6 5 5 6 8 7 6 5 5 5 7 6 8 11 9 7 6 7 7 7 7 8 10
4 4 4 4 4 3 3 4 4 5 5 4 4 6 4 3 3 5 6 6 6 4 5 5 5 5 6 6 5 7 7 5 5 5 4 4 7 9 11 9 7 9 8 7 8 10 11
4 4 4 4 4 4 3 4 4 5 6 3 3 5 4 6 5 5 5 6 6 6 5 4 5 6 6 8 7 7 6 6 5 6 5 6 9 8 7 7 7 7 8 8 8 8 9
4 4 4 4 4 4 3 4 4 5 6 2 4 5 4 5 5 6 7 6 7 6 6 6 6 6 6 7 7 8 6 6 7 5 6 5 9 8 9 7 7 8 7 7 7 7 7
4 4 4 4 4 4 3 4 4 5 5 3 3 2 3 6 5 6 6 6 6 5 5 5 5 6 6 6 5 4 4 4 5 6 6 7 8 9 11 8 8 10 8 7 7 6 7
4 4 4 4 4 4 4 4 4 5 5 3 3 3 5 6 5 6 5 5 6 5 6 5 4 5 4 3 3 4 4 4 4 5 5 7 7 8 11 9 14 8 5 6 7 6 6
4 5 4 4 3 3 4 4 4 4 5 4 3 3 4 6 6 6 6 6 5 5 5 5 4 3 2 4 6 7 7 7 6 5 5 5 7 9 11 12 9 8 6 7 8 8 6
5 5 5 4 3 3 4 4 4 4 5 3 3 2 3 5 6 4 5 5 6 5 5 5 3 2 3 5 7 10 11 9 9 8 5 6 6 9 10 13 14 9 6 5 5 10 6
5 5 5 4 4 4 4 4 4 4 5 4 1 1 2 5 3 3 5 6 4 5 6 5 4 4 3 7 8 9 10 7 10 10 9 8 9 11 10 11 9 7 6 5 11 11 5
5 5 4 4 4 4 3 4 3 3 3 3 1 -0 3 4 3 3 3 4 4 4 6 5 5 5 6 8 8 8 9 8 9 8 9 9 10 11 10 12 14 6 6 9 7 5 5
4 3 3 3 3 3 2 2 3 3 3 3 2 1 1 3 3 2 3 2 3 2 4 4 5 5 5 7 7 7 9 8 8 11 6 10 8 10 9 10 6 4 5 4 4 5 5